Zurück zum Katalog

THORAD AGENA D DEB

AktivLEO
NORAD 4231·DEBRIS·🇺🇸 United States

Gestartet Sep 30, 1969 von Vandenberg Space Force Base

Loading…

Nächste Überflüge (nächste 24 Stunden)

TLE

AktuellSource: Space-Track

Epoche: Sep 14, 2026, 05:18 UTC

1 04231U 69082CN  26257.22094331  .00000953  00000-0  25098-3 0  9995
2 04231  70.2732 279.9040 0032621 302.5648  57.2339 14.51673468964638

Verfolge THORAD AGENA D DEB in Echtzeit mit AllMySat

Download on the App Store